{"data":{"norad_id":68546,"epoch":"2026-05-24T21:08:01.168512Z","epoch_age_seconds":79185,"freshness":"FRESH","line1":"1 68546U 26070E   26144.88056908  .00019788  00000+0  59525-3 0  9996","line2":"2 68546  53.1617   8.4127 0001154  77.5977 282.5154 15.34398959  8224","mean_motion":15.34398959,"eccentricity":0.0001154,"inclination_deg":53.1617,"raan_deg":8.4127,"arg_perigee_deg":77.5977,"mean_anomaly_deg":282.5154,"bstar":0.00059525,"rev_number":822,"period_min":93.847821751553,"perigee_km":461.91690095946,"apogee_km":463.49576760101,"semimajor_km":6840.8433342802,"source":"CELESTRAK","updated_at":"2026-05-25T13:38:21.960035Z"}}